| time (UTC) | temp F | wind direction | speed MPH | gust MPH | rain 1hr in | rain 24hr in | rain mn in | humidity % | barometer mb |
| 20260507060337 | 48 | 103 | 2.0 | 6.0 | 0.00 | 0.00 | 0.00 | 99 | |
| 20260507055402 | 48 | 37 | 2.0 | 5.0 | 0.00 | 0.00 | 0.00 | 99 | |
| 20260507054437 | 47 | 34 | 2.0 | 3.0 | 0.00 | 0.00 | 0.00 | 99 | |
| 20260507053451 | 47 | 51 | 0.0 | 5.0 | 0.00 | 0.00 | 0.00 | 99 | |
| 20260507052424 | 47 | 347 | 4.0 | 4.0 | 0.00 | 0.00 | 0.00 | 99 | |
| 20260507051427 | 47 | 42 | 3.0 | 4.0 | 0.00 | 0.00 | 0.00 | 99 | |
| 20260507050351 | 46 | 90 | 0.0 | 3.0 | 0.00 | 0.00 | 0.00 | 99 | |
| 20260507045424 | 46 | 323 | 2.0 | 4.0 | 0.00 | 0.00 | 0.00 | 99 | |
| 20260507044339 | 46 | 318 | 4.0 | 8.0 | 0.00 | 0.00 | 0.00 | 99 | |
| 20260507043326 | 46 | 307 | 7.0 | 7.0 | 0.00 | 0.00 | 0.00 | 99 | |
| 20260507042401 | 46 | 342 | 5.0 | 5.0 | 0.00 | 0.00 | 0.00 | 99 | |
| 20260507041314 | 46 | 336 | 3.0 | 6.0 | 0.00 | 0.00 | 0.00 | 99 | |
| 20260507040352 | 46 | 307 | 6.0 | 6.0 | 0.00 | 0.00 | 0.00 | 99 | |
| 20260507035401 | 46 | 318 | 5.0 | 5.0 | 0.00 | 0.00 | 0.00 | 99 | |
| 20260507034338 | 46 | 330 | 0.0 | 4.0 | 0.00 | 0.00 | 0.00 | 99 | |
| 20260507033326 | 46 | 270 | 3.0 | 4.0 | 0.00 | 0.00 | 0.00 | 99 | |
| 20260507032335 | 46 | 321 | 2.0 | 5.0 | 0.00 | 0.00 | 0.00 | 99 | |
| 20260507031312 | 46 | 318 | 4.0 | 4.0 | 0.00 | 0.00 | 0.00 | 99 | |
| 20260507030338 | 46 | 294 | 3.0 | 4.0 | 0.00 | 0.00 | 0.00 | 99 | |
| 20260507025306 | 46 | 307 | 2.0 | 5.0 | 0.00 | 0.00 | 0.00 | 99 | |
| 20260507024313 | 46 | 283 | 5.0 | 5.0 | 0.00 | 0.00 | 0.00 | 99 | |
| 20260507023302 | 46 | 30 | 0.0 | 5.0 | 0.00 | 0.00 | 0.00 | 99 | |
| 20260507022337 | 46 | 330 | 0.0 | 6.0 | 0.00 | 0.00 | 0.00 | 99 | |
| 20260507021414 | 47 | 336 | 6.0 | 6.0 | 0.00 | 0.00 | 0.00 | 99 | |
| 20260507020402 | 47 | 336 | 3.0 | 5.0 | 0.00 | 0.00 | 0.00 | 99 | |
| 20260507015401 | 47 | 336 | 0.0 | 6.0 | 0.00 | 0.00 | 0.00 | 99 | |
| 20260507014424 | 47 | 309 | 5.0 | 6.0 | 0.00 | 0.00 | 0.00 | 99 | |
| 20260507013415 | 47 | 309 | 4.0 | 4.0 | 0.00 | 0.00 | 0.00 | 99 | |
| 20260507012359 | 47 | 330 | 4.0 | 4.0 | 0.00 | 0.00 | 0.00 | 99 | |
| 20260507011425 | 47 | 66 | 0.0 | 0.0 | 0.00 | 0.00 | 0.00 | 99 | |
| 20260507010412 | 47 | 58 | 0.0 | 0.0 | 0.00 | 0.00 | 0.00 | 99 | |
| 20260507005336 | 47 | 58 | 0.0 | 0.0 | 0.00 | 0.00 | 0.00 | 99 | |
| 20260507004339 | 47 | 58 | 0.0 | 0.0 | 0.00 | 0.00 | 0.00 | 99 | |
| 20260507003327 | 47 | 58 | 0.0 | 4.0 | 0.00 | 0.00 | 0.00 | 99 | |
| 20260507002402 | 47 | 68 | 4.0 | 4.0 | 0.00 | 0.00 | 0.00 | 99 | |
| 20260507001312 | 47 | 307 | 0.0 | 2.0 | 0.00 | 0.00 | 0.00 | 99 | |
| 20260507000338 | 47 | 307 | 2.0 | 2.0 | 0.00 | 0.00 | 0.00 | 99 | |
| 20260506235335 | 47 | 307 | 0.0 | 4.0 | 0.00 | 0.00 | 0.00 | 99 | |
| 20260506234313 | 46 | 318 | 4.0 | 4.0 | 0.00 | 0.00 | 0.00 | 99 | |
| 20260506233237 | 47 | 264 | 3.0 | 3.0 | 0.00 | 0.00 | 0.00 | 99 | |
| 20260506232311 | 47 | 222 | 2.0 | 5.0 | 0.00 | 0.00 | 0.00 | 99 | |
| 20260506231352 | 47 | 228 | 5.0 | 5.0 | 0.00 | 0.00 | 0.00 | 99 | |
| 20260506230337 | 47 | 193 | 2.0 | 3.0 | 0.00 | 0.00 | 0.00 | 99 | |
| 20260506225314 | 47 | 193 | 0.0 | 2.0 | 0.00 | 0.00 | 0.00 | 99 | |
| 20260506224300 | 47 | 150 | 2.0 | 5.0 | 0.00 | 0.00 | 0.00 | 99 | |
| 20260506223225 | 47 | 156 | 5.0 | 7.0 | 0.00 | 0.00 | 0.00 | 99 | |
| 20260506222205 | 48 | 257 | 4.0 | 7.0 | 0.00 | 0.00 | 0.00 | 99 | |
| 20260506221152 | 48 | 143 | 3.0 | 5.0 | 0.00 | 0.00 | 0.00 | 99 | |
| 20260506220136 | 48 | 150 | 2.0 | 7.0 | 0.00 | 0.00 | 0.00 | 99 | |
| 20260506215114 | 48 | 193 | 6.0 | 7.0 | 0.00 | 0.00 | 0.00 | 99 | |
| 20260506214101 | 48 | 204 | 5.0 | 9.0 | 0.00 | 0.00 | 0.00 | 99 | |
| 20260506213049 | 48 | 150 | 8.0 | 9.0 | 0.00 | 0.00 | 0.00 | 99 | |
| 20260506212048 | 48 | 210 | 7.0 | 8.0 | 0.00 | 0.00 | 0.00 | 99 | |
| 20260506211000 | 48 | 180 | 7.0 | 11.0 | 0.00 | 0.00 | 0.00 | 99 | |
| 20260506210024 | 48 | 210 | 5.0 | 11.0 | 0.00 | 0.00 | 0.00 | 99 | |
| 20260506205050 | 48 | 150 | 6.0 | 9.0 | 0.00 | 0.00 | 0.00 | 99 | |
| 20260506204037 | 48 | 167 | 7.0 | 12.0 | 0.00 | 0.00 | 0.00 | 99 | |
| 20260506203049 | 48 | 217 | 8.0 | 12.0 | 0.00 | 0.00 | 0.00 | 99 | |
| 20260506202026 | 48 | 210 | 6.0 | 11.0 | 0.00 | 0.00 | 0.00 | 99 | |
| 20260506201040 | 48 | 193 | 9.0 | 12.0 | 0.00 | 0.00 | 0.00 | 99 | |
| 20260506200047 | 48 | 186 | 7.0 | 13.0 | 0.00 | 0.00 | 0.00 | 99 | |
| 20260506195111 | 47 | 167 | 12.0 | 13.0 | 0.00 | 0.00 | 0.00 | 99 | |
| 20260506194138 | 47 | 210 | 11.0 | 13.0 | 0.00 | 0.00 | 0.00 | 99 | |
| 20260506193200 | 47 | 180 | 8.0 | 13.0 | 0.00 | 0.00 | 0.00 | 99 | |
| 20260506192110 | 47 | 193 | 7.0 | 13.0 | 0.00 | 0.00 | 0.00 | 99 | |
| 20260506191114 | 46 | 222 | 9.0 | 9.0 | 0.00 | 0.00 | 0.00 | 99 | |
| 20260506185048 | 46 | 198 | 8.0 | 14.0 | 0.00 | 0.00 | 0.00 | 99 | |
| 20260506184125 | 47 | 204 | 13.0 | 13.0 | 0.00 | 0.00 | 0.00 | 99 | |
| 20260506183200 | 46 | 162 | 8.0 | 12.0 | 0.00 | 0.00 | 0.00 | 99 | |
| 20260506182225 | 46 | 204 | 11.0 | 12.0 | 0.00 | 0.00 | 0.00 | 99 | |
| 20260506181247 | 47 | 210 | 6.0 | 11.0 | 0.00 | 0.00 | 0.00 | 99 | |
| 20260506180311 | 47 | 193 | 9.0 | 9.0 | 0.00 | 0.00 | 0.00 | 99 | |
| 20260506175347 | 47 | 162 | 7.0 | 9.0 | 0.00 | 0.00 | 0.00 | 99 | |
| 20260506174422 | 47 | 167 | 9.0 | 9.0 | 0.00 | 0.00 | 0.00 | 99 | |
| 20260506173423 | 47 | 193 | 9.0 | 12.0 | 0.00 | 0.00 | 0.00 | 99 | |
| 20260506172413 | 47 | 162 | 9.0 | 12.0 | 0.00 | 0.00 | 0.00 | 99 | |
| 20260506171249 | 47 | 204 | 5.0 | 9.0 | 0.00 | 0.00 | 0.00 | 99 | |
| 20260506170326 | 47 | 193 | 5.0 | 13.0 | 0.00 | 0.00 | 0.00 | 99 | |
| 20260506165136 | 47 | 186 | 7.0 | 13.0 | 0.00 | 0.00 | 0.00 | 99 | |
| 20260506164158 | 48 | 156 | 12.0 | 13.0 | 0.00 | 0.00 | 0.00 | 99 | |
| 20260506163212 | 47 | 204 | 5.0 | 11.0 | 0.00 | 0.00 | 0.00 | 99 | |
| 20260506162223 | 47 | 167 | 9.0 | 11.0 | 0.00 | 0.00 | 0.00 | 99 | |
| 20260506161158 | 47 | 174 | 7.0 | 7.0 | 0.00 | 0.00 | 0.00 | 99 | |
| 20260506160225 | 48 | 222 | 4.0 | 14.0 | 0.00 | 0.00 | 0.00 | 99 | |
| 20260506155222 | 48 | 162 | 9.0 | 16.0 | 0.00 | 0.00 | 0.00 | 99 | |
| 20260506154214 | 48 | 174 | 15.0 | 16.0 | 0.00 | 0.00 | 0.00 | 99 | |
| 20260506153147 | 48 | 198 | 11.0 | 17.0 | 0.00 | 0.00 | 0.00 | 99 | |
| 20260506152110 | 48 | 156 | 12.0 | 17.0 | 0.00 | 0.00 | 0.00 | 99 | |
| 20260506151148 | 49 | 127 | 15.0 | 17.0 | 0.00 | 0.00 | 0.00 | 99 | |
| 20260506150112 | 48 | 162 | 5.0 | 14.0 | 0.00 | 0.00 | 0.00 | 99 | |
| 20260506145113 | 48 | 180 | 13.0 | 14.0 | 0.00 | 0.00 | 0.00 | 99 | |
| 20260506144035 | 48 | 162 | 11.0 | 13.0 | 0.00 | 0.00 | 0.00 | 99 | |
| 20260506143000 | 48 | 150 | 6.0 | 13.0 | 0.00 | 0.00 | 0.00 | 99 | |
| 20260506142037 | 48 | 156 | 9.0 | 13.0 | 0.00 | 0.00 | 0.00 | 99 | |
| 20260506140100 | 47 | 162 | 8.0 | 15.0 | 0.00 | 0.00 | 0.00 | 99 | |
| 20260506134901 | 47 | 132 | 6.0 | 15.0 | 0.00 | 0.00 | 0.00 | 99 | |
| 20260506133550 | 47 | 228 | 7.0 | 15.0 | 0.00 | 0.00 | 0.00 | 99 | |
| 20260506131934 | 47 | 156 | 13.0 | 15.0 | 0.00 | 0.00 | 0.00 | 99 | |
| 20260506130925 | 47 | 210 | 9.0 | 15.0 | 0.00 | 0.00 | 0.00 | 99 | |
| 20260506130001 | 48 | 132 | 13.0 | 15.0 | 0.00 | 0.00 | 0.00 | 99 | |
| 20260506124913 | 47 | 217 | 7.0 | 16.0 | 0.00 | 0.00 | 0.00 | 99 | |
| 20260506123949 | 47 | 156 | 11.0 | 15.0 | 0.00 | 0.00 | 0.00 | 99 | |
| 20260506123000 | 47 | 143 | 6.0 | 15.0 | 0.00 | 0.00 | 0.00 | 99 | |
| 20260506122024 | 47 | 167 | 7.0 | 16.0 | 0.00 | 0.00 | 0.00 | 99 | |
| 20260506120949 | 47 | 193 | 5.0 | 16.0 | 0.00 | 0.00 | 0.00 | 99 | |
| 20260506115848 | 47 | 198 | 12.0 | 16.0 | 0.00 | 0.00 | 0.00 | 99 | |
| 20260506114748 | 47 | 167 | 11.0 | 19.0 | 0.00 | 0.00 | 0.00 | 99 | |
| 20260506113800 | 47 | 193 | 13.0 | 22.0 | 0.00 | 0.00 | 0.00 | 99 | |
| 20260506112836 | 47 | 193 | 5.0 | 22.0 | 0.00 | 0.00 | 0.00 | 99 | |
| 20260506111824 | 47 | 186 | 9.0 | 17.0 | 0.00 | 0.00 | 0.00 | 99 | |
| 20260506105758 | 47 | 198 | 17.0 | 20.0 | 0.00 | 0.00 | 0.00 | 99 | |
| 20260506104724 | 46 | 217 | 11.0 | 16.0 | 0.00 | 0.00 | 0.00 | 99 | |
| 20260506103712 | 47 | 180 | 7.0 | 16.0 | 0.00 | 0.00 | 0.00 | 99 | |
| 20260506102711 | 47 | 204 | 8.0 | 14.0 | 0.00 | 0.00 | 0.00 | 99 | |
| 20260506101637 | 47 | 204 | 9.0 | 9.0 | 0.00 | 0.00 | 0.00 | 99 | |
| 20260506100559 | 48 | 156 | 8.0 | 11.0 | 0.00 | 0.00 | 0.00 | 99 | |
| 20260506095559 | 48 | 162 | 4.0 | 16.0 | 0.00 | 0.00 | 0.00 | 99 | |
| 20260506094535 | 48 | 167 | 12.0 | 21.0 | 0.00 | 0.00 | 0.00 | 99 | |
| 20260506093547 | 48 | 120 | 15.0 | 21.0 | 0.00 | 0.00 | 0.00 | 99 | |
| 20260506092510 | 48 | 162 | 8.0 | 20.0 | 0.00 | 0.00 | 0.00 | 99 | |
| 20260506091511 | 48 | 108 | 13.0 | 14.0 | 0.00 | 0.00 | 0.00 | 99 | |
| 20260506090548 | 48 | 127 | 8.0 | 9.0 | 0.00 | 0.00 | 0.00 | 99 | |
| 20260506085534 | 48 | 127 | 6.0 | 11.0 | 0.00 | 0.00 | 0.00 | 99 | |
| 20260506084533 | 48 | 156 | 8.0 | 9.0 | 0.00 | 0.00 | 0.00 | 99 | |
| 20260506083511 | 48 | 108 | 6.0 | 9.0 | 0.00 | 0.00 | 0.00 | 99 | |
| 20260506082533 | 48 | 114 | 6.0 | 7.0 | 0.00 | 0.00 | 0.00 | 99 | |
| 20260506081534 | 48 | 127 | 7.0 | 9.0 | 0.00 | 0.00 | 0.00 | 99 | |
| 20260506080533 | 48 | 127 | 9.0 | 9.0 | 0.00 | 0.00 | 0.00 | 99 | |
| 20260506073508 | 47 | 162 | 5.0 | 6.0 | 0.00 | 0.00 | 0.00 | 99 | |
| 20260506072544 | 47 | 6 | 0.0 | 5.0 | 0.00 | 0.00 | 0.00 | 99 | |
| 20260506071620 | 46 | 62 | 4.0 | 9.0 | 0.00 | 0.00 | 0.00 | 99 | |
| 20260506070621 | 46 | 233 | 5.0 | 8.0 | 0.00 | 0.00 | 0.00 | 99 | |
| 20260506061546 | 47 | 108 | 2.0 | 3.0 | 0.00 | 0.00 | 0.00 | 99 |